STARLINK-32783, 62606

Orbit data source: Space-Track

STARLINK-32783, 62606 is a payload satellite owned by SpaceX/Seattle (US) in LEO that was launched on Mon, 13 Jan 2025 UTC via an FALCON 9 launch vehicle from the Air Force Eastern Test Range (AFETR). Payload-class satellites include a variety of spacecraft equipped with specific instruments for various scientific and technological missions. These include communications satellites like Starlink; space stations such as the ISS; scientific satellites like the Hubble; Earth observation satellites from companies like Planet Labs, Umbra, and HawkEye 360; GPS; miniature CubeSats for education and research; and military/defense satellites.

Loading next visibility...
Identifier
62606, 2025-008V
Orbit
LEO
Last TLE update
16 hours ago
Origin
Manufacturer
SpaceX/Seattle
Mission
Operational Commercial Communications
Bus & Motor
STARLINK V2M, Unknown motor
Mass
730 kg wet, ~700 kg dry
Launch date (UTC)
2025-01-13 (6 months ago)
Launch vehicle
FALCON 9
Launch site
Air Force Eastern Test Range (AFETR)
Object type
Payload
Rocket body
Debris
Shape & HBR
Box + 2 Pan, 29 m
Radar Cross Section
33.884 m², Large (>1 m²)

Expand to show TLE details & history

TLE from 16 hours ago
0 STARLINK-32783
1 62606U 25008V   25186.52058615  .00010375  00000-0  38592-3 0  9995
2 62606  43.0029 233.7561 0001762 280.7368  79.3285 15.27586633 27769
Epoch: 2025-07-05T12:29Z
TLE epoch observation values (Epoch: 2025-07-05T12:29:38.643Z)
Latitude
-0.00003°
Longitude
122.58761°
Altitude
482.581 km
Speed
7.626 km/s
True Right ascension
15h 35m 01s
True Declination
0° 00' 00"
Sunlit
Object was in full shadow at epoch
Visualization orbit readout
Latitude
13.72876°
Longitude
133.97307°
Altitude
482.129 km
Speed
7.627 km/s
Apparent Right ascension
16h 39m 41s
Apparent Declination
-54° 06' 11"
Sunlit
Object is in full shadow
Visualization observer readout
Local Sidereal Time
16:13:38
Azimuth
176.175° S
Elevation
-4.186°
Doppler factor
1
Orbital elements
Apogee altitude
486.183 km
Perigee altitude
483.765 km
Semi-major axis
6,863.111 km
Eccentricity
0.00018
Inclination
43.0029°
RAAN
233.7561°
Arg. of periapsis
280.7368°
True anomaly
Unknown
Mean anomaly
79.3285°
Eccentric anomaly
Unknown
Mean motion
3.81735 °/min
Orbital period
94.31 mins
BSTAR
0.00038592
Loading maneuver chart data...
Loading SW <> Apogee altitude chart data...
Loading historical data...
Loading historical data...
Loading historical data...
Loading historical data...
Loading historical data...
Loading historical data...
Loading historical data...

STARLINK-32783 Visibility forecast

Observer location: undefined°, undefined°

Span
Click to sort rows by Start time (UTC) header in descending order
Start Az.
Max El. time (UTC)
Max El. Az.
Max El.
End time (UTC)
End Az.
5 mins2025-07-06 05:56:29.419Z199.668° SSW2025-07-06 05:59:29.419Z142.324° SSE22.327°2025-07-06 06:01:29.419Z101° ESE
6 mins2025-07-06 07:35:29.419Z253.414° W2025-07-06 07:38:29.419Z63.313° ENE42.502°2025-07-06 07:41:29.419Z71.532° E
5 mins2025-07-06 09:15:29.419Z296.954° NW2025-07-06 09:17:29.419Z20.486° NNE37.225°2025-07-06 09:20:29.419Z76.098° E
5 mins2025-07-06 10:54:29.419Z290.055° WNW2025-07-06 10:56:29.419Z81.852° E44.576°2025-07-06 10:59:29.419Z106.766° ESE
4 mins2025-07-06 12:33:29.419Z249.115° W2025-07-06 12:35:29.419Z200.398° SSW21.985°2025-07-06 12:37:29.419Z163.771° S
|